MEA418 OKKK-OMDB

Flight info

Callsign MEA418
Flight time 1h 17m
Altitude 39000
Route SESRU M677 VUTEB
Aircraft A20N/M-SDE2E3FGHIRWXY/LB1

Departure

Time 2026-04-24 15:15
Airport Kuwait International Airport (OKKK)

Arrival

Time 2026-04-24 16:33
Airport Dubai International Airport (OMDB)
Time Latitude Longitude Altitude Speed Heading
2026-04-24 14:33 29.23993 47.97281 158 ft 0 kts 264°
2026-04-24 15:00 29.23994 47.97283 158 ft 1 kts 264°
2026-04-24 15:01 29.23994 47.97290 158 ft 1 kts 264°
2026-04-24 15:01 29.23995 47.97299 156 ft 1 kts 264°
2026-04-24 15:01 29.23996 47.97310 158 ft 2 kts 264°
2026-04-24 15:01 29.23998 47.97324 160 ft 2 kts 221°
2026-04-24 15:02 29.24011 47.97329 159 ft 0 kts 161°
2026-04-24 15:02 29.24010 47.97329 159 ft 0 kts 161°
2026-04-24 15:04 29.24007 47.97330 159 ft 3 kts 161°
2026-04-24 15:04 29.23970 47.97345 159 ft 7 kts 161°
2026-04-24 15:05 29.23920 47.97361 160 ft 10 kts 165°
2026-04-24 15:05 29.23849 47.97381 160 ft 10 kts 162°
2026-04-24 15:05 29.23768 47.97422 160 ft 14 kts 155°
2026-04-24 15:05 29.23692 47.97456 161 ft 8 kts 176°
2026-04-24 15:06 29.23644 47.97417 160 ft 11 kts 245°
2026-04-24 15:06 29.23610 47.97320 158 ft 13 kts 246°
2026-04-24 15:06 29.23566 47.97207 156 ft 19 kts 245°
2026-04-24 15:06 29.23521 47.97100 155 ft 8 kts 244°
2026-04-24 15:07 29.23487 47.97020 154 ft 14 kts 244°
2026-04-24 15:07 29.23442 47.96913 153 ft 13 kts 245°
2026-04-24 15:07 29.23420 47.96862 152 ft 2 kts 244°
2026-04-24 15:07 29.23402 47.96819 152 ft 9 kts 244°
2026-04-24 15:08 29.23357 47.96768 152 ft 8 kts 180°
2026-04-24 15:08 29.23305 47.96792 153 ft 10 kts 154°
2026-04-24 15:08 29.23230 47.96835 154 ft 13 kts 153°
2026-04-24 15:08 29.23142 47.96885 155 ft 14 kts 154°
2026-04-24 15:09 29.23038 47.96939 156 ft 18 kts 155°
2026-04-24 15:09 29.22911 47.97005 158 ft 21 kts 155°
2026-04-24 15:09 29.22773 47.97077 159 ft 23 kts 155°
2026-04-24 15:09 29.22646 47.97145 161 ft 19 kts 155°
2026-04-24 15:10 29.22528 47.97208 162 ft 17 kts 153°
2026-04-24 15:10 29.22429 47.97261 164 ft 16 kts 156°
2026-04-24 15:10 29.22319 47.97318 165 ft 16 kts 156°
2026-04-24 15:10 29.22227 47.97366 166 ft 13 kts 155°
2026-04-24 15:11 29.22132 47.97417 167 ft 17 kts 154°
2026-04-24 15:11 29.22017 47.97480 169 ft 19 kts 154°
2026-04-24 15:11 29.21909 47.97537 170 ft 16 kts 155°
2026-04-24 15:11 29.21798 47.97598 171 ft 19 kts 154°
2026-04-24 15:12 29.21715 47.97642 172 ft 20 kts 155°
2026-04-24 15:12 29.21468 47.97773 175 ft 12 kts 155°
2026-04-24 15:12 29.21397 47.97810 176 ft 6 kts 154°
2026-04-24 15:13 29.21386 47.97817 177 ft 3 kts 154°
2026-04-24 15:13 29.21358 47.97832 177 ft 7 kts 154°
2026-04-24 15:13 29.21310 47.97853 178 ft 9 kts 169°
2026-04-24 15:13 29.21254 47.97810 177 ft 13 kts 248°
2026-04-24 15:14 29.21275 47.97694 176 ft 19 kts 306°
2026-04-24 15:14 29.21371 47.97575 174 ft 20 kts 323°
2026-04-24 15:14 29.21517 47.97494 171 ft 45 kts 335°
2026-04-24 15:14 29.22110 47.97178 166 ft 132 kts 335°
2026-04-24 15:15 29.23120 47.96652 203 ft 190 kts 336°
2026-04-24 15:15 29.25903 47.95310 1308 ft 216 kts 338°
2026-04-24 15:15 29.27263 47.94714 1803 ft 207 kts 339°
2026-04-24 15:16 29.28673 47.94114 2272 ft 232 kts 339°
2026-04-24 15:16 29.30308 47.93479 3010 ft 258 kts 341°
2026-04-24 15:16 29.32053 47.92868 3971 ft 264 kts 343°
2026-04-24 15:16 29.33811 47.92297 4808 ft 267 kts 344°
2026-04-24 15:17 29.35648 47.91967 5620 ft 271 kts
2026-04-24 15:17 29.37491 47.92505 6485 ft 278 kts 26°
2026-04-24 15:17 29.39033 47.93856 7252 ft 285 kts 48°
2026-04-24 15:17 29.40081 47.95799 8036 ft 290 kts 66°
2026-04-24 15:18 29.40697 47.98026 8869 ft 297 kts 76°
2026-04-24 15:18 29.41181 48.00353 9563 ft 302 kts 77°
2026-04-24 15:18 29.41602 48.02750 10250 ft 311 kts 80°
2026-04-24 15:18 29.41817 48.05220 10888 ft 325 kts 91°
2026-04-24 15:19 29.41529 48.07851 11745 ft 340 kts 103°
2026-04-24 15:19 29.40854 48.10509 12566 ft 354 kts 112°
2026-04-24 15:19 29.39949 48.13160 13643 ft 361 kts 113°
2026-04-24 15:19 29.39005 48.15882 14426 ft 376 kts 113°
2026-04-24 15:20 29.38029 48.18737 15062 ft 393 kts 112°
2026-04-24 15:20 29.37056 48.21702 15668 ft 399 kts 112°
2026-04-24 15:20 29.36080 48.24698 16323 ft 404 kts 111°
2026-04-24 15:20 29.35098 48.27737 17022 ft 409 kts 111°
2026-04-24 15:21 29.34099 48.30814 17651 ft 414 kts 111°
2026-04-24 15:21 29.33133 48.33896 18270 ft 418 kts 111°
2026-04-24 15:21 29.32127 48.37041 18817 ft 423 kts 112°
2026-04-24 15:21 29.31081 48.40207 19262 ft 426 kts 112°
2026-04-24 15:22 29.30035 48.43406 19810 ft 431 kts 113°
2026-04-24 15:22 29.28967 48.46641 20468 ft 436 kts 113°
2026-04-24 15:22 29.27926 48.49925 21083 ft 442 kts 112°
2026-04-24 15:23 29.25795 48.56617 22256 ft 453 kts 113°
2026-04-24 15:23 29.23612 48.63438 23516 ft 465 kts 114°
2026-04-24 15:23 29.22493 48.66934 24058 ft 470 kts 114°
2026-04-24 15:24 29.19050 48.77639 25835 ft 486 kts 114°
2026-04-24 15:25 29.17114 48.83726 26867 ft 493 kts 115°
2026-04-24 15:25 29.14039 48.92139 27998 ft 493 kts 124°
2026-04-24 15:26 29.07410 49.00750 29872 ft 478 kts 147°
2026-04-24 15:27 28.99499 49.07647 31228 ft 471 kts 155°
2026-04-24 15:27 28.91478 49.14245 32244 ft 487 kts 148°
2026-04-24 15:28 28.81442 49.24507 33656 ft 477 kts 146°
2026-04-24 15:29 28.76503 49.29558 34341 ft 475 kts 146°
2026-04-24 15:30 28.69207 49.36974 35314 ft 477 kts 146°
2026-04-24 15:31 28.61371 49.44930 36404 ft 471 kts 147°
2026-04-24 15:32 28.50772 49.55389 37892 ft 463 kts 148°
2026-04-24 15:33 28.41054 49.64911 38906 ft 463 kts 148°
2026-04-24 15:33 28.33568 49.72226 38948 ft 481 kts 147°
2026-04-24 15:34 28.28505 49.77185 38945 ft 481 kts 147°
2026-04-24 15:35 28.16130 49.90042 38950 ft 483 kts 148°
2026-04-24 15:36 28.10879 49.94739 38948 ft 480 kts 151°
2026-04-24 15:36 28.05775 49.99131 38945 ft 482 kts 151°
2026-04-24 15:37 28.00365 50.03819 38945 ft 483 kts 150°
2026-04-24 15:37 27.95036 50.08453 38946 ft 483 kts 150°
2026-04-24 15:38 27.89703 50.13086 38948 ft 484 kts 150°
2026-04-24 15:38 27.84386 50.17700 38945 ft 485 kts 150°
2026-04-24 15:39 27.79013 50.22356 38951 ft 486 kts 150°
2026-04-24 15:39 27.73645 50.27002 38939 ft 487 kts 150°
2026-04-24 15:40 27.68259 50.31656 38938 ft 488 kts 150°
2026-04-24 15:40 27.62865 50.36313 38946 ft 489 kts 150°
2026-04-24 15:41 27.57461 50.40971 38944 ft 490 kts 150°
2026-04-24 15:41 27.52079 50.45606 38941 ft 490 kts 150°
2026-04-24 15:42 27.46657 50.50268 38941 ft 490 kts 150°
2026-04-24 15:42 27.41237 50.54923 38942 ft 490 kts 150°
2026-04-24 15:43 27.35845 50.59549 38946 ft 490 kts 150°
2026-04-24 15:43 27.30418 50.64198 38939 ft 491 kts 150°
2026-04-24 15:44 27.24986 50.68846 38942 ft 490 kts 150°
2026-04-24 15:44 27.19557 50.73485 38939 ft 490 kts 150°
2026-04-24 15:45 27.14198 50.78246 38938 ft 497 kts 144°
2026-04-24 15:45 27.09293 50.83780 38938 ft 500 kts 142°
2026-04-24 15:46 27.04433 50.89289 38940 ft 500 kts 142°
2026-04-24 15:46 26.99726 50.95058 38943 ft 508 kts 133°
2026-04-24 15:47 26.95899 51.01790 38935 ft 513 kts 127°
2026-04-24 15:47 26.92176 51.08535 38932 ft 512 kts 128°
2026-04-24 15:48 26.88439 51.15325 38930 ft 514 kts 124°
2026-04-24 15:48 26.85652 51.22780 38936 ft 523 kts 112°
2026-04-24 15:49 26.83360 51.30507 38938 ft 523 kts 112°
2026-04-24 15:49 26.81050 51.38220 38935 ft 522 kts 112°
2026-04-24 15:50 26.78748 51.45879 38932 ft 522 kts 112°
2026-04-24 15:50 26.76428 51.53583 38933 ft 522 kts 112°
2026-04-24 15:51 26.74106 51.61277 38931 ft 522 kts 112°
2026-04-24 15:51 26.72153 51.67660 38931 ft 521 kts 113°
2026-04-24 15:52 26.69718 51.75298 38929 ft 521 kts 113°
2026-04-24 15:52 26.67285 51.82919 38931 ft 521 kts 113°
2026-04-24 15:53 26.64874 51.90492 38931 ft 520 kts 113°
2026-04-24 15:53 26.62445 51.98112 38931 ft 520 kts 113°
2026-04-24 15:54 26.60114 52.05408 38930 ft 520 kts 113°
2026-04-24 15:54 26.57281 52.14255 38926 ft 520 kts 113°
2026-04-24 15:55 26.55237 52.20623 38928 ft 520 kts 113°
2026-04-24 15:55 26.52809 52.28178 38928 ft 520 kts 113°
2026-04-24 15:56 26.50361 52.35777 38928 ft 520 kts 113°
2026-04-24 15:56 26.47910 52.43368 38931 ft 520 kts 113°
2026-04-24 15:57 26.45454 52.50962 38928 ft 521 kts 113°
2026-04-24 15:57 26.43007 52.58512 38928 ft 521 kts 113°
2026-04-24 15:58 26.40534 52.66110 38928 ft 521 kts 113°
2026-04-24 15:58 26.38022 52.73670 38649 ft 517 kts 113°
2026-04-24 15:59 26.36770 52.77429 38010 ft 515 kts 113°
2026-04-24 15:59 26.35524 52.81168 37223 ft 514 kts 114°
2026-04-24 15:59 26.34278 52.84905 36390 ft 513 kts 114°
2026-04-24 15:59 26.33050 52.88585 35569 ft 512 kts 114°
2026-04-24 16:00 26.31811 52.92298 34729 ft 511 kts 114°
2026-04-24 16:00 26.30574 52.96001 33928 ft 509 kts 114°
2026-04-24 16:00 26.29343 52.99680 32965 ft 508 kts 114°
2026-04-24 16:00 26.28103 53.03377 31942 ft 508 kts 113°
2026-04-24 16:01 26.26864 53.07070 31352 ft 512 kts 113°
2026-04-24 16:01 26.25607 53.10809 31080 ft 520 kts 113°
2026-04-24 16:01 26.24355 53.14537 30950 ft 520 kts 113°
2026-04-24 16:01 26.23090 53.18305 30926 ft 520 kts 113°
2026-04-24 16:02 26.20550 53.25856 30923 ft 520 kts 113°
2026-04-24 16:02 26.17984 53.33371 30914 ft 518 kts 116°
2026-04-24 16:03 26.15026 53.40660 30921 ft 516 kts 117°
2026-04-24 16:03 26.12080 53.47920 30921 ft 514 kts 117°
2026-04-24 16:04 26.09154 53.55119 30916 ft 513 kts 117°
2026-04-24 16:04 26.06217 53.62326 30915 ft 512 kts 117°
2026-04-24 16:05 26.03302 53.69469 30171 ft 503 kts 117°
2026-04-24 16:05 26.01865 53.72987 29422 ft 497 kts 117°
2026-04-24 16:06 25.99083 53.79894 27805 ft 484 kts 116°
2026-04-24 16:06 25.97751 53.83312 26981 ft 478 kts 115°
2026-04-24 16:06 25.95143 53.90006 25468 ft 467 kts 116°
2026-04-24 16:07 25.93872 53.93250 25102 ft 462 kts 116°
2026-04-24 16:07 25.92560 53.96585 24954 ft 467 kts 116°
2026-04-24 16:07 25.89867 54.03076 24900 ft 466 kts 119°
2026-04-24 16:08 25.88420 54.06282 24860 ft 463 kts 119°
2026-04-24 16:08 25.85604 54.12529 24213 ft 442 kts 119°
2026-04-24 16:09 25.82902 54.18587 22871 ft 434 kts 119°
2026-04-24 16:09 25.81662 54.21629 22144 ft 431 kts 113°
2026-04-24 16:09 25.80688 54.24759 21432 ft 428 kts 111°
2026-04-24 16:09 25.79731 54.27868 20739 ft 424 kts 111°
2026-04-24 16:10 25.76907 54.36968 18767 ft 412 kts 111°
2026-04-24 16:11 25.75060 54.42901 17540 ft 401 kts 111°
2026-04-24 16:11 25.74158 54.45801 16944 ft 395 kts 111°
2026-04-24 16:11 25.73266 54.48661 16363 ft 389 kts 111°
2026-04-24 16:12 25.71540 54.54191 15380 ft 375 kts 111°
2026-04-24 16:12 25.70693 54.56902 14845 ft 370 kts 111°
2026-04-24 16:12 25.69022 54.62218 13794 ft 360 kts 111°
2026-04-24 16:13 25.68186 54.64822 13180 ft 357 kts 112°
2026-04-24 16:13 25.66524 54.69964 11962 ft 351 kts 111°
2026-04-24 16:14 25.64892 54.75027 10787 ft 346 kts 111°
2026-04-24 16:14 25.64086 54.77527 10301 ft 342 kts 111°
2026-04-24 16:14 25.62542 54.82327 10040 ft 315 kts 111°
2026-04-24 16:15 25.62066 54.83809 10030 ft 302 kts 111°
2026-04-24 16:15 25.60281 54.88840 10038 ft 300 kts 115°
2026-04-24 16:16 25.58633 54.93063 10034 ft 301 kts 115°
2026-04-24 16:16 25.57809 54.95179 10001 ft 296 kts 115°
2026-04-24 16:17 25.55390 55.01391 8894 ft 291 kts 115°
2026-04-24 16:17 25.53592 55.05362 8136 ft 284 kts 122°
2026-04-24 16:18 25.51611 55.09167 8026 ft 288 kts 121°
2026-04-24 16:18 25.49646 55.12961 8018 ft 274 kts 122°
2026-04-24 16:18 25.48693 55.14799 8018 ft 277 kts 122°
2026-04-24 16:19 25.46778 55.18485 8014 ft 276 kts 122°
2026-04-24 16:19 25.45734 55.20266 8010 ft 275 kts 131°
2026-04-24 16:20 25.43189 55.23393 8009 ft 274 kts 134°
2026-04-24 16:20 25.40637 55.26526 8004 ft 274 kts 134°
2026-04-24 16:20 25.39367 55.28086 8005 ft 274 kts 134°
2026-04-24 16:21 25.36836 55.31193 7993 ft 273 kts 134°
2026-04-24 16:21 25.35471 55.32623 7768 ft 269 kts 145°
2026-04-24 16:21 25.33895 55.33712 7423 ft 267 kts 155°
2026-04-24 16:22 25.32244 55.34654 7034 ft 267 kts 155°
2026-04-24 16:22 25.29046 55.36516 6618 ft 249 kts 154°
2026-04-24 16:22 25.27538 55.37401 6303 ft 243 kts 154°
2026-04-24 16:23 25.26059 55.38268 6078 ft 242 kts 154°
2026-04-24 16:23 25.24571 55.39139 5941 ft 240 kts 154°
2026-04-24 16:23 25.23096 55.40002 5575 ft 238 kts 154°
2026-04-24 16:24 25.20197 55.41696 4595 ft 237 kts 154°
2026-04-24 16:24 25.18740 55.42549 4087 ft 236 kts 154°
2026-04-24 16:24 25.17298 55.43393 3702 ft 231 kts 153°
2026-04-24 16:24 25.15920 55.44197 3535 ft 217 kts 153°
2026-04-24 16:25 25.14594 55.44971 3289 ft 214 kts 153°
2026-04-24 16:25 25.13314 55.45720 3055 ft 202 kts 153°
2026-04-24 16:25 25.12066 55.46447 3015 ft 214 kts 152°
2026-04-24 16:26 25.10128 55.48828 3009 ft 213 kts 119°
2026-04-24 16:26 25.09371 55.50229 3017 ft 211 kts 120°
2026-04-24 16:26 25.07907 55.53046 3016 ft 211 kts 105°
2026-04-24 16:27 25.07913 55.54628 3016 ft 207 kts 69°
2026-04-24 16:27 25.08729 55.55868 3001 ft 200 kts 33°
2026-04-24 16:27 25.10007 55.56323 2775 ft 192 kts 358°
2026-04-24 16:27 25.11218 55.55883 2509 ft 181 kts 333°
2026-04-24 16:28 25.12320 55.55227 2152 ft 177 kts 332°
2026-04-24 16:28 25.13416 55.54563 2028 ft 183 kts 332°
2026-04-24 16:28 25.15641 55.53175 2008 ft 184 kts 324°
2026-04-24 16:29 25.16463 55.52084 2009 ft 181 kts 307°
2026-04-24 16:29 25.17108 55.50999 2015 ft 162 kts 306°
2026-04-24 16:29 25.18292 55.48993 1984 ft 153 kts 306°
2026-04-24 16:30 25.19427 55.47072 1459 ft 146 kts 307°
2026-04-24 16:30 25.19975 55.46110 1346 ft 150 kts 305°
2026-04-24 16:30 25.20505 55.45104 1247 ft 153 kts 306°
2026-04-24 16:31 25.21028 55.44105 1043 ft 151 kts 309°
2026-04-24 16:31 25.21582 55.43132 800 ft 147 kts 309°
2026-04-24 16:31 25.22105 55.42194 661 ft 141 kts 302°
2026-04-24 16:31 25.22599 55.41272 468 ft 136 kts 302°
2026-04-24 16:32 25.23102 55.40387 304 ft 139 kts 300°
2026-04-24 16:32 25.23607 55.39451 124 ft 139 kts 302°
2026-04-24 16:32 25.24071 55.38620 54 ft 102 kts 301°
2026-04-24 16:32 25.24314 55.38181 52 ft 51 kts 302°
2026-04-24 16:33 25.24454 55.37917 43 ft 25 kts 297°
2026-04-24 16:33 25.24552 55.37732 37 ft 30 kts 298°
2026-04-24 16:33 25.24610 55.37517 35 ft 23 kts 275°
2026-04-24 16:33 25.24610 55.37466 34 ft 4 kts 266°
2026-04-24 16:34 25.24608 55.37409 34 ft 11 kts 271°
2026-04-24 16:34 25.24619 55.37300 33 ft 17 kts 282°
2026-04-24 16:34 25.24663 55.37188 33 ft 14 kts 301°
2026-04-24 16:34 25.24709 55.37106 32 ft 14 kts 302°
2026-04-24 16:35 25.24763 55.37012 30 ft 14 kts 302°
2026-04-24 16:35 25.24814 55.36920 29 ft 13 kts 300°
2026-04-24 16:35 25.24850 55.36842 28 ft 9 kts 292°
2026-04-24 16:35 25.24866 55.36762 27 ft 12 kts 278°
2026-04-24 16:36 25.24887 55.36670 27 ft 15 kts 296°
2026-04-24 16:36 25.24941 55.36572 26 ft 16 kts 301°
2026-04-24 16:36 25.24994 55.36474 23 ft 14 kts 300°
2026-04-24 16:36 25.25035 55.36398 22 ft 8 kts 301°
2026-04-24 16:37 25.25062 55.36349 22 ft 1 kts 300°
2026-04-24 16:37 25.25068 55.36338 21 ft 3 kts 300°
2026-04-24 16:37 25.25087 55.36301 22 ft 7 kts 300°
2026-04-24 16:37 25.25112 55.36254 22 ft 8 kts 302°
2026-04-24 16:38 25.25156 55.36183 19 ft 13 kts 303°
2026-04-24 16:38 25.25206 55.36091 18 ft 15 kts 301°
2026-04-24 16:38 25.25273 55.35972 17 ft 21 kts 302°
2026-04-24 16:38 25.25349 55.35834 14 ft 19 kts 301°
2026-04-24 16:39 25.25417 55.35712 12 ft 16 kts 301°
2026-04-24 16:39 25.25471 55.35610 12 ft 14 kts 301°
2026-04-24 16:39 25.25510 55.35539 12 ft 13 kts 302°
2026-04-24 16:39 25.25566 55.35442 13 ft 17 kts 302°
2026-04-24 16:40 25.25623 55.35342 15 ft 11 kts 301°
2026-04-24 16:40 25.25661 55.35273 18 ft 10 kts 302°
2026-04-24 16:40 25.25674 55.35251 19 ft 0 kts 304°
2026-04-24 16:40 25.25675 55.35249 18 ft 2 kts 303°
2026-04-24 16:41 25.25679 55.35241 18 ft 0 kts 301°
2026-04-24 16:42 25.25685 55.35230 17 ft 5 kts 301°
2026-04-24 16:42 25.25712 55.35181 18 ft 10 kts 301°
2026-04-24 16:42 25.25754 55.35102 20 ft 14 kts 300°
2026-04-24 16:42 25.25804 55.35008 23 ft 17 kts 302°
2026-04-24 16:43 25.25868 55.34892 25 ft 16 kts 302°
2026-04-24 16:43 25.25911 55.34819 26 ft 8 kts 303°
2026-04-24 16:43 25.25943 55.34759 27 ft 12 kts 299°
2026-04-24 16:43 25.25991 55.34672 28 ft 14 kts 299°
2026-04-24 16:44 25.26032 55.34593 27 ft 9 kts 298°
2026-04-24 16:44 25.26066 55.34522 28 ft 13 kts 298°
2026-04-24 16:44 25.26105 55.34417 30 ft 17 kts 279°
2026-04-24 16:44 25.26082 55.34332 27 ft 2 kts 213°